This is the latest recevied weather packets stored in our database for station/object SV9TNF-1. If no packets are shown the sender has not sent any weather packets the latest 10 day(s).
| Time | Temp. | Humidity | Pressure | Rain* | Wind** | Luminosity | Snow |
|---|---|---|---|---|---|---|---|
| 1777906359 | 18.89° C | 50% | 1006.4 hPa | 0 mm | 12.07 m/s, 317° | - | - |
| 1777906059 | 19.44° C | 50% | 1006.4 hPa | 0 mm | 8.49 m/s, 238° | - | - |
| 1777905759 | 19.44° C | 49% | 1006.4 hPa | 0 mm | 13.41 m/s, 11° | - | - |
| 1777905459 | 20° C | 48% | 1006.4 hPa | 0 mm | 7.6 m/s, 227° | - | - |
| 1777905159 | 19.44° C | 49% | 1006.4 hPa | 0 mm | 10.73 m/s, 331° | - | - |
| 1777904859 | 19.44° C | 48% | 1006.4 hPa | 0 mm | 7.15 m/s, 322° | - | - |
| 1777904559 | 19.44° C | 50% | 1006.4 hPa | 0 mm | 15.2 m/s, 330° | - | - |
| 1777904259 | 19.44° C | 48% | 1006.4 hPa | 0 mm | 10.28 m/s, 313° | - | - |
| 1777903958 | 19.44° C | 49% | 1006.8 hPa | 0 mm | 10.28 m/s, 337° | - | - |
| 1777903659 | 19.44° C | 48% | 1006.8 hPa | 0 mm | 12.07 m/s, 322° | - | - |
| 1777903358 | 19.44° C | 48% | 1006.8 hPa | 0 mm | 10.73 m/s, 323° | - | - |
| 1777903058 | 19.44° C | 48% | 1006.8 hPa | 0 mm | 12.07 m/s, 323° | - | - |
| 1777902625 | 20° C | 46% | 1006.8 hPa | 0 mm | 8.05 m/s, 211° | - | - |
| 1777902325 | 20° C | 47% | 1007.5 hPa | 0 mm | 12.96 m/s, 332° | - | - |
| 1777902025 | 20° C | 46% | 1007.5 hPa | 0 mm | 7.6 m/s, 194° | - | - |
| 1777901725 | 19.44° C | 50% | 1007.8 hPa | 0 mm | 2.68 m/s, 323° | - | - |
| 1777901425 | 19.44° C | 50% | 1007.8 hPa | 0 mm | 9.39 m/s, 331° | - | - |
| 1777901125 | 19.44° C | 51% | 1007.8 hPa | 0 mm | 6.26 m/s, 359° | - | - |
| 1777900825 | 19.44° C | 49% | 1007.8 hPa | 0 mm | 11.62 m/s, 31° | - | - |
| 1777900524 | 19.44° C | 48% | 1007.8 hPa | 0 mm | 9.83 m/s, 305° | - | - |
| 1777900224 | 18.89° C | 49% | 1007.8 hPa | 0 mm | 14.31 m/s, 338° | - | - |
| 1777899924 | 19.44° C | 47% | 1007.8 hPa | 0 mm | 6.26 m/s, 344° | - | - |
| 1777899624 | 19.44° C | 46% | 1007.8 hPa | 0 mm | 11.18 m/s, 43° | - | - |
| 1777899324 | 19.44° C | 47% | 1007.8 hPa | 0 mm | 7.15 m/s, 273° | - | - |
| 1777899024 | 19.44° C | 45% | 1007.8 hPa | 0 mm | 8.05 m/s, 346° | - | - |
* Rain latest hour (hover to see other rain measurements)
** Current wind speed in m/s (hover to see current wind gust speed)